Regional Weather Roundup
Issued by NWS

Home | Current Version | Previous Version | Text Only | Print | Product List | Glossary On
Versions: 1 2 3 4 5 6 7 8 9 10 11 12 13 14 15 16 17 18 19 20 21 22 23 24 25 26 27 28
000
ASUS45 KTFX 010910
RWRMT
MONTANA REGIONAL WEATHER ROUNDUP
NATIONAL WEATHER SERVICE GREAT FALLS MT
300 AM MDT SUN MAY 01 2016

NOTE: "FAIR" INDICATES FEW OR NO CLOUDS BELOW 12000 FEET WITH NO
SIGNIFICANT WEATHER AND/OR OBSTRUCTIONS TO VISIBILITY.

MTZ001>007-043-011000-
WEST OF THE DIVIDE

CITY           SKY/WX    TMP DP  RH WIND       PRES   REMARKS
KALISPELL      CLEAR     38  35  89 CALM      30.28S
MISSOULA       MOCLDY    44  37  76 NE5       30.29F
BUTTE          CLOUDY    35  30  82 SW5       30.29F
MULLAN PASS    CLEAR     38  27  64 VRB6      30.28F
ANACONDA         N/A     37  34  87 CALM      30.30S
DEER LODGE       N/A     37  34  87 N6        30.32R
EUREKA           N/A     36  30  80 CALM      30.33R
HAMILTON         N/A     45  37  76 CALM      30.26F
LIBBY            N/A     39  36  87 SE3       30.31R
THOMPSON FALLS   N/A     36  34  92 CALM      30.31S
$$

MTZ008-052>055-011000-
SOUTHWEST MONTANA

CITY           SKY/WX    TMP DP  RH WIND       PRES   REMARKS
BOZEMAN        CLEAR     33  29  85 W5        30.30S
DILLON         CLOUDY    38  30  73 NE7       30.25F
ENNIS          CLEAR     32  30  93 NE7       30.32S WCI  26
THREE FORKS      N/A     32  32 100 CALM      30.26S
TWIN BRIDGES     N/A     39  28  65 N9        30.22S
$$

MTZ009-010-012-014-046-048-049-054-011000-
EAST SLOPES AND CENTRAL MONTANA

CITY           SKY/WX    TMP DP  RH WIND       PRES   REMARKS
CUT BANK       CLEAR     35  33  92 N7        30.33S WCI  29
GREAT FALLS    CLEAR     33  29  85 W3        30.32F
MALMSTROM AFB  CLEAR     33  31  94 S2        30.33F
HELENA         CLEAR     40  34  79 SW8       30.31S
CHOTEAU          N/A     39  39 100 CALM      30.33F
CONRAD           N/A     32  32 100 CALM      30.31F
$$

MTZ011-013-016-021-045-047-050-051-011000-
NORTH CENTRAL MONTANA

CITY           SKY/WX    TMP DP  RH WIND       PRES   REMARKS
HAVRE          PTCLDY    37  33  85 CALM      30.33S
LEWISTOWN      CLOUDY    39  33  79 SE6       30.33F
N BAR RANCH    CLOUDY    36  32  87 W5        30.36S
CHINOOK          N/A     36  34  93 CALM      30.34S
$$

MTZ017>020-022>027-061-062-011000-
NORTHEAST MONTANA

CITY           SKY/WX    TMP DP  RH WIND       PRES   REMARKS
GLASGOW        CLOUDY    40  30  67 NE3       30.32S
JORDAN           N/A     34  32  92 W5        30.32S
SIDNEY         CLEAR     36  28  75 NW6       30.33S WCI  31
WOLF POINT     CLEAR     35  30  82 CALM      30.34R
PLENTYWOOD       N/A     45  25  45 E3        30.34S
POPLAR           N/A     39  28  65 CALM      30.34R
SCOBEY           N/A     31  22  69 CALM      30.30S
$$

MTZ028>42-056>058-011000-
SOUTHCENTRAL AND SOUTHEAST MONTANA

CITY           SKY/WX    TMP DP  RH WIND       PRES   REMARKS
BAKER          CLEAR     33  27  78 CALM      30.32R
BILLINGS       CLOUDY    39  32  76 NW7       30.31S
LIVINGSTON     CLOUDY    39  33  79 CALM      30.31S
MILES CITY     CLEAR     38  33  82 NW5       30.32R
FORSYTH          N/A     37  34  87 CALM      30.32S
LAUREL           N/A     40  24  53 CALM      30.27S
ROUNDUP          N/A     44  32  63 CALM      30.21S
$$

REGIONAL REPORTS...DAKOTAS

CITY           SKY/WX    TMP DP  RH WIND       PRES   REMARKS
WILLISTON      CLEAR     35  28  75 N5        30.33R
MINOT          CLEAR     39  28  64 SW7       30.31S
DICKINSON      CLEAR     31  25  78 NW7       30.29R WCI  24
BEACH            N/A     28  28 100 CALM      30.34S
CROSBY           N/A     32  25  74 CALM      30.37R HAZE
WATFORD CITY     N/A     28  28 100 SW3       30.33R
BISMARCK       CLEAR     37  31  78 CALM      30.30R
GRAND FORKS    CLEAR     32  25  75 NW6       30.28R WCI  26
FARGO          CLEAR     38  27  64 CALM      30.25R
BUFFALO SD       N/A     33  26  75 W5        30.23R
RAPID CITY     CLEAR     33  29  85 N12       30.25R WCI  24
$$

REGIONAL REPORTS...WYOMING/IDAHO/WASHINGTON

CITY           SKY/WX    TMP DP  RH WIND       PRES   REMARKS
GILLETTE       PTCLDY    29  27  92 S6        30.29R WCI  23
SHERIDAN       CLOUDY    39  35  86 CALM      30.31S
BUFFALO WY       N/A    N/A N/A N/A MISG      30.31R
CODY           CLOUDY    37  34  87 CALM      30.30S
YELLOWSTONE LA   N/A     29  21  72 CALM      30.29R
IDAHO FALLS    CLOUDY    36  32  85 N7        30.17S WCI  30
SALMON         CLOUDY    43  37  81 N5        30.22F
BOISE          CLEAR     44  35  70 S3        30.09F
SPOKANE        CLEAR     47  44  90 NE8       30.25S
$$

REGIONAL REPORTS...ALBERTA

CITY           SKY/WX    TMP DP  RH WIND       PRES   REMARKS
EDMONTON       PTCLDY    45  30  57 SW7       30.21S
CALGARY        CLEAR     39  30  70 SW5       30.28F
LETHBRIDGE     CLEAR     36  34  93 S15       30.30F WCI  26
MEDICINE HAT   CLEAR     37  36  93 S5        30.31S
WATERTON GATE    N/A     36  30  80 SW7         N/A  WCI  30
MILK RIVER       N/A     34  32  93 NW1         N/A
$$

REGIONAL REPORTS...SASKATCHEWAN

CITY           SKY/WX    TMP DP  RH WIND       PRES   REMARKS
SWIFT CURRENT  PTCLDY    41  30  65 SW12      30.29F
REGINA         CLEAR     36  23  60 SE9       30.33S WCI  29
SASKATOON      CLEAR     41  27  56 S8        30.28F
CYPRESS HILLS    N/A     41  28  60 CALM        N/A
VAL MARIE        N/A     32  27  80 CALM        N/A
ROCKGLEN         N/A     41  27  56 SW6         N/A
ASSINIBOIA       N/A     39  32  75 S6          N/A
$$




USA.gov is the U.S. government's official web portal to all federal, state and local government web resources and services.